Weather History for Atka, AK

Change the Weather History Date:

Friday, November 16, 2012

  Actual Average (PADK) Record (PADK)
Temperature  
Mean Temperature 42 °F -  
Max Temperature 46 °F 42 °F 57 °F (1970)
Min Temperature 39 °F 32 °F 16 °F (1971)
Degree Days  
Heating Degree Days 22    
Moisture  
Dew Point -7 °F    
Average Humidity 12    
Maximum Humidity 12    
Minimum Humidity 11    
Precipitation  
Precipitation 0.00 in - - ()
Sea Level Pressure  
Sea Level Pressure 29.81 in    
Wind  
Wind Speed 12 mph (West)    
Max Wind Speed 25 mph    
Max Gust Speed 31 mph    
Visibility 7 miles    
Events      
Averages and records for this station are not official NWS values.
T = Trace of Precipitation, MM = Missing Value Source: NWS Daily Summary

Daily Weather History Graph

Daily Weather History Graph

Search for Another Location

Airport:

Trip Planner

Search our weather history database for the weather conditions in past years. The results will help you decide how hot, cold, wet, or windy it might be!

Date:

Astronomy

Nov. 16, 2012 Rise Set
Actual Time 9:00 AM HAST 5:42 PM HAST
Civil Twilight 8:22 AM HAST 6:20 PM HAST
Nautical Twilight 7:41 AM HAST 7:01 PM HAST
Astronomical Twilight 7:00 AM HAST 7:41 PM HAST
Moon 12:13 PM HAST (11/16) 8:54 PM HAST (11/16)
Length of Visible Light 9h 57m
Length of Day
8h 41m
Waxing Crescent, 13% of the Moon is Illuminated
Nov 16
Waxing Crescent
Nov 20
First Quarter
Nov 28
Full
Dec 6
Last Quarter
Dec 12
New

Hourly Weather History & Observations

Time (HAST) Temp. Windchill Dew Point Humidity Pressure Visibility Wind Dir Wind Speed Gust Speed Precip Events Conditions
12:16 AM 46.4 °F 42.9 °F -5.8 °F 11% 29.96 in 6.0 mi South 6.9 mph - N/A   Overcast
12:36 AM 46.4 °F 41.1 °F -5.8 °F 11% 29.95 in 4.0 mi ESE 11.5 mph - N/A   Overcast
12:56 AM 46.4 °F 42.4 °F -5.8 °F 11% 29.94 in 3.0 mi ESE 8.1 mph - N/A   Overcast
1:16 AM 46.4 °F 41.5 °F -5.8 °F 11% 29.93 in 4.0 mi ESE 10.4 mph - N/A   Overcast
1:36 AM 46.4 °F 41.9 °F -5.8 °F 11% 29.92 in 3.0 mi SE 9.2 mph - N/A   Overcast
1:56 AM 46.4 °F 41.9 °F -5.8 °F 11% 29.90 in 5.0 mi SSE 9.2 mph - N/A   Overcast
2:16 AM 44.6 °F 38.4 °F -5.8 °F 12% 29.88 in 5.0 mi SE 12.7 mph - N/A   Overcast
2:36 AM 44.6 °F 37.4 °F -5.8 °F 12% 29.87 in 2.5 mi ESE 16.1 mph - N/A   Overcast
2:56 AM 44.6 °F 38.8 °F -5.8 °F 12% 29.87 in 2.5 mi SE 11.5 mph - N/A   Overcast
3:16 AM 44.6 °F 39.2 °F -5.8 °F 12% 29.84 in 2.5 mi East 10.4 mph - N/A   Overcast
3:36 AM 44.6 °F 38.4 °F -5.8 °F 12% 29.83 in 2.5 mi East 12.7 mph - N/A   Overcast
3:56 AM 44.6 °F 39.7 °F -5.8 °F 12% 29.83 in 4.0 mi ENE 9.2 mph - N/A   Overcast
4:16 AM 44.6 °F 39.7 °F -5.8 °F 12% 29.81 in 7.0 mi ENE 9.2 mph - N/A   Overcast
4:36 AM 44.6 °F 39.7 °F -5.8 °F 12% 29.79 in 5.0 mi East 9.2 mph - N/A   Overcast
4:56 AM 44.6 °F 39.7 °F -5.8 °F 12% 29.77 in 5.0 mi East 9.2 mph - N/A   Overcast
5:16 AM 44.6 °F 40.2 °F -5.8 °F 12% 29.77 in 4.0 mi ESE 8.1 mph - N/A   Overcast
5:36 AM 46.4 °F 40.4 °F -5.8 °F 11% 29.74 in 6.0 mi South 13.8 mph 23.0 mph N/A   Mostly Cloudy
5:56 AM 46.4 °F 42.9 °F -5.8 °F 11% 29.73 in 3.0 mi South 6.9 mph 20.7 mph N/A   Overcast
6:16 AM 46.4 °F 40.4 °F -5.8 °F 11% 29.72 in 6.0 mi South 13.8 mph 24.2 mph N/A   Overcast
6:36 AM 46.4 °F 40.4 °F -4.0 °F 12% 29.72 in 7.0 mi SW 13.8 mph 20.7 mph N/A   Overcast
6:56 AM 46.4 °F 40.7 °F -5.8 °F 11% 29.71 in 4.0 mi West 12.7 mph 19.6 mph N/A   Overcast
7:16 AM 46.4 °F 38.7 °F -5.8 °F 11% 29.71 in 5.0 mi WSW 20.7 mph 27.6 mph N/A   Overcast
7:36 AM 46.4 °F 39.2 °F -5.8 °F 11% 29.71 in 10.0 mi WSW 18.4 mph 31.1 mph N/A   Mostly Cloudy
7:56 AM 46.4 °F 41.5 °F -4.0 °F 12% 29.69 in 4.0 mi WNW 10.4 mph - N/A   Overcast
8:16 AM 46.4 °F 41.9 °F -5.8 °F 11% 29.67 in 10.0 mi WNW 9.2 mph - N/A   Mostly Cloudy
8:36 AM 46.4 °F 42.9 °F -5.8 °F 11% 29.67 in 10.0 mi West 6.9 mph - N/A   Overcast
8:56 AM 46.4 °F 42.4 °F -5.8 °F 11% 29.68 in 10.0 mi SW 8.1 mph - N/A   Scattered Clouds
9:16 AM 44.6 °F - -5.8 °F 12% 29.69 in 10.0 mi Calm Calm - N/A   Scattered Clouds
9:36 AM 46.4 °F 39.5 °F -5.8 °F 11% 29.72 in 10.0 mi WSW 17.3 mph - N/A   Mostly Cloudy
9:56 AM 46.4 °F 41.1 °F -4.0 °F 12% 29.74 in 10.0 mi WNW 11.5 mph - N/A   Mostly Cloudy
10:16 AM 46.4 °F 40.4 °F -5.8 °F 11% 29.74 in 10.0 mi WNW 13.8 mph - N/A   Unknown
10:36 AM 44.6 °F 38.1 °F -5.8 °F 12% 29.76 in 2.0 mi WNW 13.8 mph - N/A   Unknown
10:56 AM 44.6 °F 37.8 °F -5.8 °F 12% 29.76 in 0.8 mi WNW 15.0 mph - N/A   Overcast
11:16 AM 46.4 °F 39.5 °F -5.8 °F 11% 29.78 in 1.2 mi West 17.3 mph 21.9 mph N/A   Overcast
11:36 AM 44.6 °F 36.6 °F -5.8 °F 12% 29.80 in 2.5 mi West 19.6 mph 24.2 mph N/A   Overcast
11:56 AM 44.6 °F 36.6 °F -7.6 °F 11% 29.80 in 0.8 mi West 19.6 mph 26.5 mph N/A   Overcast
12:16 PM 44.6 °F 36.9 °F -7.6 °F 11% 29.81 in 1.0 mi WNW 18.4 mph - N/A   Overcast
12:36 PM 42.8 °F 35.1 °F -7.6 °F 12% 29.80 in 2.5 mi West 16.1 mph 19.6 mph N/A   Overcast
12:56 PM 42.8 °F 35.8 °F -7.6 °F 12% 29.81 in 9.0 mi West 13.8 mph 19.6 mph N/A   Overcast
1:16 PM 42.8 °F 35.8 °F -7.6 °F 12% 29.80 in 9.0 mi WNW 13.8 mph 20.7 mph N/A   Unknown
1:56 PM 46.4 °F 39.2 °F -5.8 °F 11% 29.79 in - WNW 18.4 mph 24.2 mph N/A   Unknown
2:16 PM 44.6 °F 36.4 °F -5.8 °F 12% 29.79 in 10.0 mi WNW 20.7 mph 28.8 mph N/A   Overcast
2:36 PM 44.6 °F 36.4 °F -7.6 °F 11% 29.79 in 10.0 mi WNW 20.7 mph 29.9 mph N/A   Scattered Clouds
2:56 PM 44.6 °F 35.9 °F -7.6 °F 11% 29.80 in 10.0 mi WNW 23.0 mph - N/A   Scattered Clouds
3:16 PM 44.6 °F 36.1 °F -7.6 °F 11% 29.80 in 10.0 mi WNW 21.9 mph 27.6 mph N/A   Mostly Cloudy
3:36 PM 42.8 °F 33.1 °F -7.6 °F 12% 29.79 in 10.0 mi WNW 25.3 mph 31.1 mph N/A   Partly Cloudy
3:56 PM 42.8 °F 33.5 °F -7.6 °F 12% 29.80 in 10.0 mi WNW 23.0 mph 29.9 mph N/A   Mostly Cloudy
4:16 PM 42.8 °F 33.5 °F -7.6 °F 12% 29.81 in 10.0 mi WNW 23.0 mph 28.8 mph N/A   Mostly Cloudy
4:36 PM 42.8 °F 33.8 °F -7.6 °F 12% 29.82 in 10.0 mi WNW 21.9 mph 26.5 mph N/A   Mostly Cloudy
4:56 PM 41.0 °F 31.9 °F -9.4 °F 12% 29.82 in 10.0 mi WNW 19.6 mph 26.5 mph N/A   Partly Cloudy
5:16 PM 41.0 °F 32.5 °F -9.4 °F 12% 29.82 in 10.0 mi WNW 17.3 mph 24.2 mph N/A   Clear
5:36 PM 41.0 °F 32.8 °F -9.4 °F 12% 29.83 in 9.0 mi WNW 16.1 mph - N/A   Clear
5:56 PM 41.0 °F 33.1 °F -9.4 °F 12% 29.84 in 8.0 mi WNW 15.0 mph - N/A   Mostly Cloudy
6:16 PM 41.0 °F 33.1 °F -9.4 °F 12% 29.85 in 10.0 mi WNW 15.0 mph 21.9 mph N/A   Mostly Cloudy
6:36 PM 39.2 °F 32.0 °F -9.4 °F 12% 29.85 in 10.0 mi WNW 11.5 mph - N/A   Clear
6:56 PM 39.2 °F 31.2 °F -9.4 °F 12% 29.85 in 10.0 mi WNW 13.8 mph - N/A   Clear
7:16 PM 39.2 °F 31.2 °F -9.4 °F 12% 29.85 in 10.0 mi WNW 13.8 mph - N/A   Clear
7:36 PM 39.2 °F 33.0 °F -9.4 °F 12% 29.85 in 10.0 mi WNW 9.2 mph - N/A   Partly Cloudy
7:56 PM 39.2 °F 32.0 °F -9.4 °F 12% 29.85 in 10.0 mi WNW 11.5 mph - N/A   Mostly Cloudy
8:16 PM 39.2 °F 32.0 °F -9.4 °F 12% 29.85 in 10.0 mi WNW 11.5 mph - N/A   Mostly Cloudy
8:36 PM 41.0 °F 33.5 °F -9.4 °F 12% 29.85 in 10.0 mi WNW 13.8 mph 20.7 mph N/A   Scattered Clouds
8:56 PM 41.0 °F 33.9 °F -9.4 °F 12% 29.85 in 10.0 mi WNW 12.7 mph - N/A   Overcast
9:16 PM 41.0 °F 33.1 °F -9.4 °F 12% 29.85 in 10.0 mi West 15.0 mph 18.4 mph N/A   Overcast
9:36 PM 41.0 °F 33.9 °F -9.4 °F 12% 29.85 in 10.0 mi WNW 12.7 mph - N/A   Scattered Clouds
9:56 PM 41.0 °F 34.7 °F -9.4 °F 12% 29.86 in 10.0 mi WNW 10.4 mph - N/A   Mostly Cloudy
10:16 PM 39.2 °F 33.6 °F -9.4 °F 12% 29.87 in 10.0 mi WNW 8.1 mph - N/A   Mostly Cloudy
10:36 PM 41.0 °F 33.5 °F -9.4 °F 12% 29.86 in 10.0 mi WNW 13.8 mph 23.0 mph N/A   Mostly Cloudy
10:56 PM 41.0 °F 33.1 °F -9.4 °F 12% 29.86 in 10.0 mi WNW 15.0 mph 23.0 mph N/A   Mostly Cloudy
11:16 PM 39.2 °F 31.2 °F -9.4 °F 12% 29.87 in 10.0 mi WNW 13.8 mph 20.7 mph N/A   Partly Cloudy
11:36 PM 39.2 °F 31.2 °F -9.4 °F 12% 29.87 in 10.0 mi WNW 13.8 mph - N/A   Clear
11:56 PM 39.2 °F 31.2 °F -9.4 °F 12% 29.86 in 10.0 mi WNW 13.8 mph 19.6 mph N/A   Clear